This is the latest recevied weather packets stored in our database for station/object VA2DG-13. If no packets are shown the sender has not sent any weather packets the latest 10 day(s).
| Time | Temp. | Humidity | Pressure | Rain* | Wind** | Luminosity | Snow |
|---|---|---|---|---|---|---|---|
| 1777601410 | 7.22° C | 77% | 1008.2 hPa | 0 mm | - | - | - |
| 1777598409 | 7.78° C | 77% | 1007.7 hPa | 0 mm | - | - | - |
| 1777597810 | 7.78° C | 77% | 1007.7 hPa | 0 mm | - | - | - |
| 1777597510 | 7.78° C | 77% | 1007.6 hPa | 0 mm | - | - | - |
| 1777597210 | 7.78° C | 77% | 1007.5 hPa | 0 mm | - | - | - |
| 1777595409 | 7.78° C | 75% | 1007.1 hPa | 0 mm | - | - | - |
| 1777594809 | 8.33° C | 73% | 1007.2 hPa | 0 mm | - | - | - |
| 1777593609 | 8.33° C | 72% | 1006.8 hPa | 0 mm | - | - | - |
| 1777589410 | 8.33° C | 72% | 1006.2 hPa | 0 mm | - | - | - |
| 1777589109 | 8.33° C | 72% | 1006.1 hPa | 0 mm | - | - | - |
| 1777588509 | 8.89° C | 72% | 1006 hPa | 0 mm | - | - | - |
| 1777587609 | 8.89° C | 72% | 1005.8 hPa | 0 mm | - | - | - |
| 1777587309 | 8.89° C | 72% | 1005.7 hPa | 0 mm | - | - | - |
| 1777587009 | 8.89° C | 72% | 1005.7 hPa | 0 mm | - | - | - |
| 1777583410 | 8.89° C | 71% | 1005.4 hPa | 0 mm | - | - | - |
| 1777582509 | 8.89° C | 72% | 1005 hPa | 0 mm | - | - | - |
| 1777582210 | 9.44° C | 72% | 1005.1 hPa | 0 mm | - | - | - |
| 1777581009 | 9.44° C | 73% | 1005.1 hPa | 0 mm | - | - | - |
| 1777579509 | 8.89° C | 74% | 1004.7 hPa | 0 mm | - | - | - |
| 1777578609 | 8.89° C | 74% | 1004.8 hPa | 0 mm | - | - | - |
| 1777575309 | 8.89° C | 76% | 1004.9 hPa | 0 mm | - | - | - |
| 1777573810 | 8.89° C | 77% | 1005 hPa | 0 mm | - | - | - |
| 1777570509 | 8.89° C | 79% | 1004.4 hPa | 0 mm | - | - | - |
| 1777569610 | 8.89° C | 80% | 1004.2 hPa | 0 mm | - | - | - |
| 1777568409 | 8.33° C | 82% | 1004.3 hPa | 0 mm | - | - | - |
* Rain latest hour (hover to see other rain measurements)
** Current wind speed in m/s (hover to see current wind gust speed)